Liberia, Costa Rica

11:12 PM CST on September 25, 2016 (GMT -0600)
Daniel Oduber Quiros International

Weather History for MRLB - May, 2014

Change the Weather History Date:

Monday, May 12, 2014

  Actual Average Record
Temperature  
Mean Temperature 82 °F -  
Max Temperature 93 °F 92 °F 99 °F (2015)
Min Temperature 72 °F 78 °F 71 °F (2012)
Cooling Degree Days 18    
Growing Degree Days 32 (Base 50)    
Moisture  
Dew Point 71 °F    
Average Humidity 62    
Maximum Humidity 94    
Minimum Humidity 35    
Precipitation  
Precipitation 0.00 in - - ()
Sea Level Pressure  
Sea Level Pressure 29.79 in    
Wind  
Wind Speed 6 mph ()    
Max Wind Speed 13 mph    
Max Gust Speed -    
Visibility 7.7 miles    
Events      
Averages and records for this station are not official NWS values.
T = Trace of Precipitation, MM = Missing Value Source: Averaged Metar Reports

Daily Weather History Graph

Daily Weather History Graph

Search for Another Location

Airport or City:

Trip Planner

Search our weather history database for the weather conditions in past years. The results will help you decide how hot, cold, wet, or windy it might be!

Date:

Astronomy

May. 12, 2014 Rise Set
Actual Time 5:20 AM CST 5:56 PM CST
Civil Twilight 4:58 AM CST 6:18 PM CST
Nautical Twilight 4:32 AM CST 6:44 PM CST
Astronomical Twilight 4:06 AM CST 7:11 PM CST
Moon 4:14 PM CST (5/12) 3:33 AM CST (5/12)
Length of Visible Light 13h 19m
Length of Day
12h 35m
Waxing Gibbous, 95% of the Moon is Illuminated
May 12
Waxing Gibbous
May 14
Full
May 21
Last Quarter
May 28
New
Jun 5
First Quarter

Hourly Weather History & Observations

Time (CST) Temp. Heat Index Dew Point Humidity Pressure Visibility Wind Dir Wind Speed Gust Speed Precip Events Conditions
6:00 AM 73 °F - 71 °F 92% 29.83 in 12 mi NE 3.5 mph - -   Clear
6:00 AM 73.4 °F - 71.6 °F 94% 29.82 in - NE 3.5 mph - N/A   Clear
7:00 AM 78.8 °F - 71.6 °F 78% 29.84 in - SW 3.5 mph - N/A   Clear
8:00 AM 82.4 °F 87.2 °F 71.6 °F 70% 29.84 in - NW 3.5 mph - N/A   Clear
9:00 AM 85 °F - 71 °F 55% 29.84 in 12 mi West 3.5 mph - -   Clear
9:00 AM 86.0 °F 91.8 °F 71.6 °F 62% 29.84 in - West 3.5 mph - N/A   Clear
10:00 AM 91.4 °F 95.4 °F 68.0 °F 46% 29.83 in 6.2 mi ENE 9.2 mph - N/A   Scattered Clouds
11:00 AM 91.4 °F 95.4 °F 68.0 °F 46% 29.82 in 6.2 mi SE 8.1 mph - N/A   Scattered Clouds
12:00 PM 93 °F - 68 °F 35% 29.80 in 12 mi SE 10.4 mph - -   Partly Cloudy
12:00 PM 93.2 °F 97.7 °F 68.0 °F 44% 29.80 in 6.2 mi SE 10.4 mph - N/A   Scattered Clouds
1:00 PM 93.2 °F 96.2 °F 66.2 °F 41% 29.78 in 6.2 mi East 10.4 mph - N/A   Scattered Clouds
2:00 PM 93.2 °F 96.2 °F 66.2 °F 41% 29.75 in 6.2 mi East 9.2 mph - N/A   Scattered Clouds
3:00 PM 89 °F - 72 °F 49% 29.77 in 12 mi West 12.7 mph - -   Partly Cloudy
3:00 PM 87.8 °F 93.8 °F 71.6 °F 58% 29.73 in 6.2 mi West 12.7 mph - N/A   Scattered Clouds
4:00 PM 87.8 °F 95.6 °F 73.4 °F 62% 29.72 in 6.2 mi WNW 12.7 mph - N/A   Scattered Clouds
5:00 PM 86.0 °F 95.1 °F 75.2 °F 70% 29.73 in 6.2 mi WNW 9.2 mph - N/A   Scattered Clouds
6:00 PM 84.2 °F 92.3 °F 75.2 °F 74% 29.75 in 6.2 mi West 8.1 mph - N/A   Scattered Clouds
7:00 PM 82.4 °F 89.5 °F 75.2 °F 79% 29.77 in 6.2 mi WNW 5.8 mph - N/A   Partly Cloudy
8:00 PM 82.4 °F 89.5 °F 75.2 °F 79% 29.79 in 6.2 mi Calm Calm - N/A   Partly Cloudy